Location: Newark
(39.9581°N, 97.2014°W)
Time: 18:29:06
(UTC+00:00)

N. Korean satellite - Visible Passes

Search period start: 21 January 2020 00:00
Search period end: 31 January 2020 00:00
Orbit: 454 x 507 km, 97.2° (Epoch: 20 January)

Date Brightness Start Highest point End Pass type
(mag) Time Alt. Az. Time Alt. Az. Time Alt. Az.
21 Jan 6.8 12:11:58 10° NNE 12:15:31 71° ESE 12:19:05 10° S visible
22 Jan 9.6 00:20:59 10° SW 00:23:26 18° W 00:25:54 10° NW visible
22 Jan 8.5 11:46:46 10° NNE 11:49:59 31° E 11:53:13 10° SSE visible
23 Jan 9.7 11:22:12 10° NE 11:24:22 15° E 11:26:32 10° SE visible
23 Jan 7.4 12:54:39 10° N 12:57:47 29° WNW 13:00:57 10° SW visible
24 Jan 6.5 12:28:50 10° N 12:32:23 65° WNW 12:35:58 10° SSW visible
25 Jan 10.2 00:39:24 10° WSW 00:40:25 11° W 00:41:27 10° WNW visible
25 Jan 7.3 12:03:22 10° NNE 12:06:54 54° E 12:10:27 10° S visible
26 Jan 9.3 00:11:57 10° SSW 00:14:45 23° W 00:17:33 10° NW visible
26 Jan 9.0 11:38:19 10° NE 11:41:20 25° E 11:44:22 10° SSE visible
26 Jan 8.0 13:11:58 10° NNW 13:14:33 19° WNW 13:17:08 10° WSW visible
27 Jan 10.0 11:14:11 10° ENE 11:15:40 12° E 11:17:10 10° ESE visible
27 Jan 7.0 12:45:51 10° N 12:49:11 38° WNW 12:52:35 10° SW visible
28 Jan 6.5 12:20:09 10° N 12:23:46 86° W 12:27:25 10° SSW visible
29 Jan 9.8 00:29:47 10° SW 00:31:42 14° W 00:33:38 10° WNW visible
29 Jan 7.9 11:54:48 10° NNE 11:58:15 41° E 12:01:44 10° S visible
30 Jan 9.4 11:29:56 10° NE 11:32:39 20° E 11:35:23 10° SE visible
30 Jan 7.7 13:03:01 10° NNW 13:05:58 24° WNW 13:08:56 10° SW visible
